H1 CPF 2 NER 2023 4 15 9 105 01 glonass129 H2 1106402 9129 37868 2023 4 15 0 0 0 2023 4 18 23 45 0 900 1 1 0 0 0 1 H9 10 0 60049 0.00000 0 -10448789.745 6552452.905 -22274842.840 10 0 60049 900.00000 0 -10547279.912 3756146.293 -22870194.714 10 0 60049 1800.00000 0 -10854562.737 929247.724 -23019096.378 10 0 60049 2700.00000 0 -11365442.185 -1858039.554 -22718812.826 10 0 60049 3600.00000 0 -12062556.160 -4537643.415 -21975408.507 10 0 60049 4500.00000 0 -12917097.496 -7046221.710 -20803611.752 10 0 60049 5400.00000 0 -13890037.393 -9327555.893 -19226507.032 10 0 60049 6300.00000 0 -14933797.931 -11334640.074 -17275062.591 10 0 60049 7200.00000 0 -15994301.243 -13031379.542 -14987504.257 10 0 60049 8100.00000 0 -17013307.260 -14393829.867 -12408549.256 10 0 60049 9000.00000 0 -17930940.026 -15410927.470 -9588516.511 10 0 60049 9900.00000 0 -18688295.114 -16084684.225 -6582332.138 10 0 60049 10800.00000 0 -19230017.851 -16429841.389 -3448450.706 10 0 60049 11700.00000 0 -19506743.833 -16473000.781 -247714.074 10 0 60049 12600.00000 0 -19477299.653 -16251272.841 2957829.441 10 0 60049 13500.00000 0 -19110572.336 -15810501.003 6106122.535 10 0 60049 14400.00000 0 -18386970.270 -15203138.992 9136290.169 10 0 60049 15300.00000 0 -17299415.772 -14485871.375 11989802.261 10 0 60049 16200.00000 0 -15853829.001 -13717077.718 14611586.563 10 0 60049 17100.00000 0 -14069083.925 -12954246.338 16951071.827 10 0 60049 18000.00000 0 -11976438.671 -12251445.122 18963142.930 10 0 60049 18900.00000 0 -9618463.784 -11656953.907 20608991.555 10 0 60049 19800.00000 0 -7047512.048 -11211155.882 21856848.004 10 0 60049 20700.00000 0 -4323791.849 -10944774.637 22682581.783 10 0 60049 21600.00000 0 -1513121.764 -10877529.316 23070160.805 10 0 60049 22500.00000 0 1315543.294 -11017263.341 23011961.254 10 0 60049 23400.00000 0 4092714.757 -11359583.102 22508922.384 10 0 60049 24300.00000 0 6750997.068 -11888022.462 21570542.861 10 0 60049 25200.00000 0 9227632.096 -12574727.647 20214717.630 10 0 60049 26100.00000 0 11466857.916 -13381635.900 18467416.748 10 0 60049 27000.00000 0 13421985.419 -14262100.940 16362210.262 10 0 60049 27900.00000 0 15057107.075 -15162899.538 13939645.855 10 0 60049 28800.00000 0 16348366.462 -16026537.199 11246488.842 10 0 60049 29700.00000 0 17284734.772 -16793757.740 8334836.940 10 0 60049 30600.00000 0 17868260.444 -17406152.045 5261124.997 10 0 60049 31500.00000 0 18113779.858 -17808756.090 2085037.692 10 0 60049 32400.00000 0 18048099.670 -17952527.660 -1131649.365 10 0 60049 33300.00000 0 17708683.899 -17796595.340 -4326277.581 10 0 60049 34200.00000 0 17141900.339 -17310182.181 -7436538.026 10 0 60049 35100.00000 0 16400900.179 -16474119.723 -10401703.435 10 0 60049 36000.00000 0 15543221.031 -15281885.138 -13163833.686 10 0 60049 36900.00000 0 14628216.000 -13740114.630 -15668929.085 10 0 60049 37800.00000 0 13714419.335 -11868568.715 -17868006.777 10 0 60049 38700.00000 0 12856962.241 -9699548.767 -19718077.196 10 0 60049 39600.00000 0 12105150.351 -7276788.045 -21182999.690 10 0 60049 40500.00000 0 11500307.329 -4653863.246 -22234199.310 10 0 60049 41400.00000 0 11073977.320 -1892193.337 -22851229.887 10 0 60049 42300.00000 0 10846563.208 941289.786 -23022172.124 10 0 60049 43200.00000 0 10826458.467 3776700.371 -22743859.120 10 0 60049 44100.00000 0 11009708.838 6543879.562 -22021925.589 10 0 60049 45000.00000 0 11380216.984 9175084.971 -20870680.834 10 0 60049 45900.00000 0 11910479.857 11607576.263 -19312809.295 10 0 60049 46800.00000 0 12562825.627 13785988.938 -17378905.982 10 0 60049 47700.00000 0 13291095.809 15664397.931 -15106857.500 10 0 60049 48600.00000 0 14042699.421 17207986.368 -12541082.340 10 0 60049 49500.00000 0 14760950.625 18394251.898 -9731646.771 10 0 60049 50400.00000 0 15387589.688 19213702.881 -6733275.019 10 0 60049 51300.00000 0 15865379.916 19670018.440 -3604274.153 10 0 60049 52200.00000 0 16140670.673 19779668.978 -405395.498 10 0 60049 53100.00000 0 16165818.606 19571016.239 2801344.724 10 0 60049 54000.00000 0 15901365.793 19082933.560 5953862.538 10 0 60049 54900.00000 0 15317884.260 18363006.494 8991198.212 10 0 60049 55800.00000 0 14397410.592 17465390.888 11854680.812 10 0 60049 56700.00000 0 13134411.733 16448419.016 14489043.945 10 0 60049 57600.00000 0 11536242.504 15372054.097 16843472.777 10 0 60049 58500.00000 0 9623076.345 14295299.047 18872563.861 10 0 60049 59400.00000 0 7427312.132 13273666.559 20537181.318 10 0 60049 60300.00000 0 4992481.076 12356814.597 21805194.811 10 0 60049 61200.00000 0 2371697.743 11586444.306 22652086.857 10 0 60049 62100.00000 0 -374282.569 10994546.397 23061419.197 10 0 60049 63000.00000 0 -3179322.221 10602067.985 23025150.178 10 0 60049 63900.00000 0 -5974384.663 10418054.805 22543797.275 10 0 60049 64800.00000 0 -8690143.133 10439304.635 21626441.274 10 0 60049 65700.00000 0 -11259609.356 10650547.163 20290570.963 10 0 60049 66600.00000 0 -13620675.669 11025144.175 18561769.658 10 0 60049 67500.00000 0 -15718466.836 11526282.658 16473247.504 10 0 60049 68400.00000 0 -17507404.784 12108612.977 14065226.162 10 0 60049 69300.00000 0 -18952900.437 12720265.484 11384185.307 10 0 60049 70200.00000 0 -20032601.406 13305162.574 8481983.207 10 0 60049 71100.00000 0 -20737142.155 13805530.048 5414866.470 10 0 60049 72000.00000 0 -21070363.479 14164502.278 2242386.787 10 0 60049 72900.00000 0 -21048990.282 14328710.686 -973754.974 10 0 60049 73800.00000 0 -20701779.522 14250744.723 -4170914.881 10 0 60049 74700.00000 0 -20068172.923 13891379.048 -7286737.987 10 0 60049 75600.00000 0 -19196510.605 13221469.839 -10260390.972 10 0 60049 76500.00000 0 -18141881.069 12223436.853 -13033769.530 10 0 60049 77400.00000 0 -16963699.116 10892265.330 -15552654.810 10 0 60049 78300.00000 0 -15723115.411 9235982.422 -17767794.130 10 0 60049 79200.00000 0 -14480368.976 7275585.510 -19635882.844 10 0 60049 80100.00000 0 -13292196.483 5044423.591 -21120426.346 10 0 60049 81000.00000 0 -12209409.741 2587056.636 -22192464.042 10 0 60049 81900.00000 0 -11274745.271 -42359.565 -22831140.290 10 0 60049 82800.00000 0 -10521077.843 -2782095.033 -23024110.814 10 0 60049 83700.00000 0 -9970073.759 -5565188.297 -22767776.819 10 0 60049 84600.00000 0 -9631340.345 -8322011.206 -22067342.899 10 0 60049 85500.00000 0 -9502106.445 -10982947.603 -20936698.587 10 0 60050 0.00000 0 -9567445.672 -13481072.995 -19398127.361 10 0 60050 900.00000 0 -9801030.852 -15754724.316 -17481849.342 10 0 60050 1800.00000 0 -10166385.217 -17749849.374 -15225410.404 10 0 60050 2700.00000 0 -10618575.120 -19422043.219 -12672928.469 10 0 60050 3600.00000 0 -11106270.380 -20738184.586 -9874215.182 10 0 60050 4500.00000 0 -11574083.237 -21677607.538 -6883790.799 10 0 60050 5400.00000 0 -11965085.614 -22232761.787 -3759812.741 10 0 60050 6300.00000 0 -12223397.524 -22409337.065 -562939.587 10 0 60050 7200.00000 0 -12296737.043 -22225849.383 2644846.829 10 0 60050 8100.00000 0 -12138824.637 -21712709.443 5801438.220 10 0 60050 9000.00000 0 -11711541.292 -20910814.720 8845792.624 10 0 60050 9900.00000 0 -10986750.730 -19869726.095 11719100.770 10 0 60050 10800.00000 0 -9947710.342 -18645506.550 14365904.687 10 0 60050 11700.00000 0 -8590012.753 -17298312.730 16735148.470 10 0 60050 12600.00000 0 -6922019.360 -15889839.647 18781142.780 10 0 60050 13500.00000 0 -4964767.942 -14480724.192 20464426.418 10 0 60050 14400.00000 0 -2751357.799 -13128014.196 21752510.402 10 0 60050 15300.00000 0 -325836.834 -11882806.736 22620491.946 10 0 60050 16200.00000 0 2258364.990 -10788152.190 23051527.978 10 0 60050 17100.00000 0 4940393.311 -9877309.661 23037160.001 10 0 60050 18000.00000 0 7654239.799 -9172425.266 22577484.354 10 0 60050 18900.00000 0 10331234.367 -8683687.697 21681164.239 10 0 60050 19800.00000 0 12902658.888 -8408996.368 20365282.244 10 0 60050 20700.00000 0 15302376.653 -8334156.751 18655034.559 10 0 60050 21600.00000 0 17469370.543 -8433596.109 16583270.713 10 0 60050 22500.00000 0 19350085.742 -8671571.358 14189885.259 10 0 60050 23400.00000 0 20900479.905 -9003820.342 11521070.753 10 0 60050 24300.00000 0 22087694.894 -9379588.872 8628444.147 10 0 60050 25200.00000 0 22891279.092 -9743949.556 5568061.521 10 0 60050 26100.00000 0 23303907.379 -10040315.362 2399338.923 10 0 60050 27000.00000 0 23331566.590 -10213041.670 -816100.491 10 0 60050 27900.00000 0 22993196.626 -10210005.807 -4015630.642 10 0 60050 28800.00000 0 22319800.609 -9985053.113 -7136853.851 10 0 60050 29700.00000 0 21353060.292 -9500203.465 -10118834.014 10 0 60050 30600.00000 0 20143514.599 -8727521.809 -12903305.807 10 0 60050 31500.00000 0 18748378.286 -7650570.353 -15435834.178 10 0 60050 32400.00000 0 17229093.692 -6265377.810 -17666899.347 10 0 60050 33300.00000 0 15648720.295 -4580881.946 -19552884.032 10 0 60050 34200.00000 0 14069274.031 -2618824.481 -21056941.818 10 0 60050 35100.00000 0 12549130.444 -413101.197 -22149728.302 10 0 60050 36000.00000 0 11140602.808 1991406.274 -22809979.874 10 0 60050 36900.00000 0 9887798.556 4540468.035 -23024928.432 10 0 60050 37800.00000 0 8824844.891 7172543.787 -22790544.088 10 0 60050 38700.00000 0 7974558.184 9821134.779 -22111601.759 10 0 60050 39600.00000 0 7347612.257 12417350.406 -21001571.300 10 0 60050 40500.00000 0 6942238.925 14892581.174 -19482334.657 10 0 60050 41400.00000 0 6744471.133 17181165.653 -17583737.005 10 0 60050 42300.00000 0 6728915.761 19222939.704 -15342982.286 10 0 60050 43200.00000 0 6860020.616 20965561.812 -12803886.523 10 0 60050 44100.00000 0 7093779.319 22366518.329 -10016005.043 10 0 60050 45000.00000 0 7379799.554 23394726.389 -7033652.056 10 0 60050 45900.00000 0 7663645.227 24031669.633 -3914832.920 10 0 60050 46800.00000 0 7889352.131 24272021.829 -720110.740 10 0 60050 47700.00000 0 8002010.031 24123735.060 2488570.012 10 0 60050 48600.00000 0 7950302.033 23607591.609 5649079.878 10 0 60050 49500.00000 0 7688894.547 22756240.807 8700297.878 10 0 60050 50400.00000 0 7180578.023 21612763.244 11583279.638 10 0 60050 51300.00000 0 6398069.541 20228823.780 14242378.750 10 0 60050 52200.00000 0 5325402.647 18662491.246 16626301.290 10 0 60050 53100.00000 0 3958847.140 16975815.715 18689074.885 10 0 60050 54000.00000 0 2307320.818 15232263.601 20390915.685 10 0 60050 54900.00000 0 392275.889 13494115.954 21698978.476 10 0 60050 55800.00000 0 -1752935.986 11819936.436 22587977.282 10 0 60050 56700.00000 0 -4084195.138 10262212.275 23040665.956 10 0 60050 57600.00000 0 -6548197.010 8865264.279 23048170.479 10 0 60050 58500.00000 0 -9084423.933 7663511.184 22610166.881 10 0 60050 59400.00000 0 -11627426.787 6680159.363 21734901.055 10 0 60050 60300.00000 0 -14109325.036 5926371.866 20439049.070 10 0 60050 61200.00000 0 -16462424.201 5400951.615 18747419.075 10 0 60050 62100.00000 0 -18621844.484 5090552.732 16692498.458 10 0 60050 63000.00000 0 -20528052.911 4970412.483 14313852.610 10 0 60050 63900.00000 0 -22129194.363 5005574.751 11657384.448 10 0 60050 64800.00000 0 -23383124.171 5152555.358 8774466.712 10 0 60050 65700.00000 0 -24259056.403 5361380.573 5720961.806 10 0 60050 66600.00000 0 -24738757.186 5577913.866 2556146.827 10 0 60050 67500.00000 0 -24817230.913 5746372.899 -658436.158 10 0 60050 68400.00000 0 -24502868.190 5811929.815 -3860182.308 10 0 60050 69300.00000 0 -23817047.166 5723283.375 -6986654.554 10 0 60050 70200.00000 0 -22793203.209 5435091.868 -9976817.263 10 0 60050 71100.00000 0 -21475404.979 4910161.009 -12772247.194 10 0 60050 72000.00000 0 -19916496.467 4121291.092 -15318295.996 10 0 60050 72900.00000 0 -18175883.647 3052702.016 -17565179.389 10 0 60050 73800.00000 0 -16317059.999 1700972.977 -19468969.692 10 0 60050 74700.00000 0 -14404976.619 75454.572 -20992470.457 10 0 60050 75600.00000 0 -12503369.394 -1801866.001 -22105954.749 10 0 60050 76500.00000 0 -10672157.379 -3897042.207 -22787751.739 10 0 60050 77400.00000 0 -8965023.218 -6165359.925 -23024669.725 10 0 60050 78300.00000 0 -7427278.189 -8552993.492 -22812247.465 10 0 60050 79200.00000 0 -6094101.724 -10999055.946 -22154829.495 10 0 60050 80100.00000 0 -4989228.796 -13437956.551 -21065464.898 10 0 60050 81000.00000 0 -4124138.852 -15801965.840 -19565632.824 10 0 60050 81900.00000 0 -3497778.242 -18023879.870 -17684801.554 10 0 60050 82800.00000 0 -3096825.099 -20039671.594 -15459831.348 10 0 60050 83700.00000 0 -2896482.425 -21791018.255 -12934234.335 10 0 60050 84600.00000 0 -2861762.769 -23227599.523 -10157307.446 10 0 60050 85500.00000 0 -2949207.302 -24309071.212 -7183156.761 10 0 60051 0.00000 0 -3108964.057 -25006633.579 -4069633.756 10 0 60051 900.00000 0 -3287135.577 -25304130.959 -877203.416 10 0 60051 1800.00000 0 -3428295.200 -25198638.277 2332228.952 10 0 60051 2700.00000 0 -3478065.342 -24700513.695 5496514.815 10 0 60051 3600.00000 0 -3385648.754 -23832916.584 8554456.307 10 0 60051 4500.00000 0 -3106206.696 -22630813.556 11446976.109 10 0 60051 5400.00000 0 -2602984.825 -21139515.574 14118241.570 10 0 60051 6300.00000 0 -1849098.618 -19412808.130 16516722.910 10 0 60051 7200.00000 0 -828904.429 -17510752.615 18596166.834 10 0 60051 8100.00000 0 461100.387 -15497249.886 20316468.812 10 0 60051 9000.00000 0 2011885.679 -13437466.109 21644429.182 10 0 60051 9900.00000 0 3802021.707 -11395226.113 22554380.323 10 0 60051 10800.00000 0 5798332.907 -9430480.393 23028674.284 10 0 60051 11700.00000 0 7957046.829 -7596948.753 23058022.496 10 0 60051 12600.00000 0 10225392.905 -5940036.374 22641681.340 10 0 60051 13500.00000 0 12543587.524 -4495107.237 21787479.767 10 0 60051 14400.00000 0 14847126.041 -3286185.555 20511687.395 10 0 60051 15300.00000 0 17069289.486 -2325138.869 18838724.099 10 0 60051 16200.00000 0 19143764.403 -1611377.064 16800714.596 10 0 60051 17100.00000 0 21007268.788 -1132080.760 14436894.261 10 0 60051 18000.00000 0 22602075.904 -862950.771 11792875.182 10 0 60051 18900.00000 0 23878330.874 -769448.695 8919784.326 10 0 60051 19800.00000 0 24796062.594 -808477.954 5873288.493 10 0 60051 20700.00000 0 25326805.194 -930435.560 2712523.532 10 0 60051 21600.00000 0 25454758.937 -1081548.640 -501052.209 10 0 60051 22500.00000 0 25177439.370 -1206396.799 -3704858.001 10 0 60051 23400.00000 0 24505784.853 -1250512.661 -6836420.420 10 0 60051 24300.00000 0 23463715.706 -1162948.740 -9834607.384 10 0 60051 25200.00000 0 22087161.748 -898699.497 -12640840.756 10 0 60051 26100.00000 0 20422598.106 -420873.150 -15200261.770 10 0 60051 27000.00000 0 18525150.626 297481.812 -17462824.332 10 0 60051 27900.00000 0 16456351.075 1271975.715 -19384292.817 10 0 60051 28800.00000 0 14281637.642 2505964.305 -20927122.966 10 0 60051 29700.00000 0 12067707.294 3990163.633 -22061207.291 10 0 60051 30600.00000 0 9879832.833 5702810.988 -22764469.464 10 0 60051 31500.00000 0 7779258.804 7610365.915 -23023295.633 10 0 60051 32400.00000 0 5820786.642 9668721.942 -22832794.341 10 0 60051 33300.00000 0 4050650.808 11824877.656 -22196880.540 10 0 60051 34200.00000 0 2504774.735 14018996.067 -21128182.979 10 0 60051 35100.00000 0 1207478.652 16186764.746 -19647778.069 10 0 60051 36000.00000 0 170691.559 18261956.684 -17784756.846 10 0 60051 36900.00000 0 -606302.089 20179083.553 -15575635.143 10 0 60051 37800.00000 0 -1136573.477 21876029.630 -13063620.051 10 0 60051 38700.00000 0 -1444733.814 23296555.950 -10297748.577 10 0 60051 39600.00000 0 -1565629.728 24392570.241 -7331916.760 10 0 60051 40500.00000 0 -1542607.777 25126068.602 -4223819.381 10 0 60051 41400.00000 0 -1425423.958 25470669.191 -1033821.878 10 0 60051 42300.00000 0 -1267888.421 25412675.646 2176212.962 10 0 60051 43200.00000 0 -1125346.078 24951627.956 5344120.521 10 0 60051 44100.00000 0 -1052099.911 24100319.950 8408629.155 10 0 60051 45000.00000 0 -1098885.445 22884284.723 11310531.759 10 0 60051 45900.00000 0 -1310502.051 21340771.124 13993812.595 10 0 60051 46800.00000 0 -1723699.603 19517255.056 16406709.117 10 0 60051 47700.00000 0 -2365408.081 17469547.979 18502690.096 10 0 60051 48600.00000 0 -3251383.272 15259580.963 20241333.162 10 0 60051 49500.00000 0 -4385324.543 12952955.275 21589086.849 10 0 60051 50400.00000 0 -5758501.464 10616359.528 22519904.279 10 0 60051 51300.00000 0 -7349905.364 8314958.417 23015737.770 10 0 60051 52200.00000 0 -9126920.880 6109858.969 23066885.877 10 0 60051 53100.00000 0 -11046491.488 4055757.084 22672186.554 10 0 60051 54000.00000 0 -13056733.137 2198859.945 21839052.479 10 0 60051 54900.00000 0 -15098931.774 575168.959 20583346.902 10 0 60051 55800.00000 0 -17109844.666 -790806.325 18929100.883 10 0 60051 56700.00000 0 -19024212.503 -1886850.059 16908075.297 10 0 60051 57600.00000 0 -20777379.934 -2713323.867 14559173.731 10 0 60051 58500.00000 0 -22307916.763 -3282919.727 11927715.126 10 0 60051 59400.00000 0 -23560130.982 -3619891.030 9064577.911 10 0 60051 60300.00000 0 -24486368.209 -3758792.696 6025230.149 10 0 60051 61200.00000 0 -25048999.965 -3742782.091 2868663.054 10 0 60051 62100.00000 0 -25222015.375 -3621551.564 -343752.286 10 0 60051 63000.00000 0 -24992146.896 -3448979.642 -3549462.883 10 0 60051 63900.00000 0 -24359479.978 -3280600.751 -6685962.593 10 0 60051 64800.00000 0 -23337518.302 -3171001.846 -9692026.472 10 0 60051 65700.00000 0 -21952699.515 -3171258.174 -12508924.970 10 0 60051 66600.00000 0 -20243380.132 -3326519.360 -15081592.185 10 0 60051 67500.00000 0 -18258331.349 -3673850.912 -17359723.218 10 0 60051 68400.00000 0 -16054808.828 -4240425.445 -19298777.116 10 0 60051 69300.00000 0 -13696278.148 -5042142.883 -20860863.937 10 0 60051 70200.00000 0 -11249892.530 -6082740.269 -22015497.190 10 0 60051 71100.00000 0 -8783830.083 -7353430.482 -22740195.964 10 0 60051 72000.00000 0 -6364603.716 -8833086.142 -23020924.532 10 0 60051 72900.00000 0 -4054457.686 -10488961.264 -22852360.883 10 0 60051 73800.00000 0 -1908960.547 -12277920.004 -22237989.498 10 0 60051 74700.00000 0 25104.520 -14148119.977 -21190017.424 10 0 60051 75600.00000 0 1711464.397 -16041078.239 -19729116.573 10 0 60051 76500.00000 0 3125624.968 -17894031.885 -17883998.694 10 0 60051 77400.00000 0 4255633.396 -19642492.882 -15690832.916 10 0 60051 78300.00000 0 5102304.657 -21222888.940 -13192518.876 10 0 60051 79200.00000 0 5678906.188 -22575179.034 -10437831.154 10 0 60051 80100.00000 0 6010317.393 -23645333.771 -7480453.216 10 0 60051 81000.00000 0 6131702.865 -24387577.063 -4377920.917 10 0 60051 81900.00000 0 6086758.283 -24766296.154 -1190497.111 10 0 60051 82800.00000 0 5925605.508 -24757541.439 2020000.058 10 0 60051 83700.00000 0 5702427.448 -24350055.046 5191392.205 10 0 60051 84600.00000 0 5472943.515 -23545787.118 8262336.129 10 0 60051 85500.00000 0 5291832.331 -22359880.061 11173497.054 10 0 60052 0.00000 0 5210209.861 -20820123.192 13868677.914 10 0 60052 900.00000 0 5273268.102 -18965900.751 16295885.734 10 0 60052 1800.00000 0 5518172.411 -16846679.763 18408312.771 10 0 60052 2700.00000 0 5972304.260 -14520097.680 20165220.275 10 0 60052 3600.00000 0 6651922.073 -12049730.286 21532706.200 10 0 60052 4500.00000 0 7561295.474 -9502630.138 22484345.373 10 0 60052 5400.00000 0 8692349.089 -6946735.619 23001691.063 10 0 60052 6300.00000 0 10024831.472 -4448255.455 23074629.359 10 0 60052 7200.00000 0 11527003.561 -2069134.608 22701579.926 10 0 60052 8100.00000 0 13156820.074 135295.870 21889539.065 10 0 60052 9000.00000 0 14863557.279 2118389.531 20653963.326 10 0 60052 9900.00000 0 16589822.139 3843891.193 19018494.399 10 0 60052 10800.00000 0 18273861.920 5287209.349 17014528.565 10 0 60052 11700.00000 0 19852080.423 6436201.364 14680636.647 10 0 60052 12600.00000 0 21261657.585 7291438.038 12061843.242 10 0 60052 13500.00000 0 22443163.973 7865935.415 9208776.788 10 0 60052 14400.00000 0 23343060.817 8184363.718 6176704.901 10 0 60052 15300.00000 0 23915979.830 8281765.312 3024472.180 10 0 60052 16200.00000 0 24126685.386 8201834.611 -186639.769 10 0 60052 17100.00000 0 23951634.122 7994831.913 -3394108.127 10 0 60052 18000.00000 0 23380063.492 7715219.359 -6535396.586 10 0 60052 18900.00000 0 22414560.484 7419119.857 -9549189.949 10 0 60052 19800.00000 0 21071083.751 7161708.074 -12376609.832 10 0 60052 20700.00000 0 19378435.919 6994646.124 -14962385.686 10 0 60052 21600.00000 0 17377206.631 6963675.143 -17255956.148 10 0 60052 22500.00000 0 15118229.882 7106467.466 -19212477.115 10 0 60052 23400.00000 0 12660620.402 7450832.961 -20793714.978 10 0 60052 24300.00000 0 10069472.087 8013357.751 -21968806.089 10 0 60052 25200.00000 0 7413316.066 8798534.626 -22714866.624 10 0 60052 26100.00000 0 4761446.247 9798423.071 -23017440.439 10 0 60052 27000.00000 0 2181225.597 10992853.682 -22870776.178 10 0 60052 27900.00000 0 -264513.178 12350168.174 -22277928.742 10 0 60052 28800.00000 0 -2519863.319 13828463.001 -21250684.007 10 0 60052 29700.00000 0 -4537936.162 15377283.009 -19809309.516 10 0 60052 30600.00000 0 -6282563.234 16939692.438 -17982137.424 10 0 60052 31500.00000 0 -7729538.894 18454634.628 -15804989.446 10 0 60052 32400.00000 0 -8867354.030 19859479.887 -13320456.654 10 0 60052 33300.00000 0 -9697393.171 21092653.415 -10577049.739 10 0 60052 34200.00000 0 -10233590.213 22096232.254 -7628237.816 10 0 60052 35100.00000 0 -10501560.784 22818402.165 -4531395.763 10 0 60052 36000.00000 0 -10537251.145 23215671.755 -1346681.582 10 0 60052 36900.00000 0 -10385163.476 23254751.950 1864133.693 10 0 60052 37800.00000 0 -10096234.635 22914023.410 5038860.526 10 0 60052 38700.00000 0 -9725459.352 22184532.026 8116086.891 10 0 60052 39600.00000 0 -9329358.739 21070472.546 11036353.166 10 0 60052 40500.00000 0 -8963400.679 19589141.618 13743284.279 10 0 60052 41400.00000 0 -8679479.924 17770363.332 16184658.734 10 0 60052 42300.00000 0 -8523562.611 15655411.825 18313395.621 10 0 60052 43200.00000 0 -8533592.648 13295475.667 20088442.586 10 0 60052 44100.00000 0 -8737746.297 10749727.041 21475549.646 10 0 60052 45000.00000 0 -9153106.906 8083074.346 22447915.784 10 0 60052 45900.00000 0 -9784814.536 5363689.291 22986697.428 10 0 60052 46800.00000 0 -10625726.067 2660408.415 23081370.073 10 0 60052 47700.00000 0 -11656600.720 40113.950 22729936.565 10 0 60052 48600.00000 0 -12846804.780 -2434800.129 21938977.822 10 0 60052 49500.00000 0 -14155508.245 -4708774.219 20723544.155 10 0 60052 50400.00000 0 -15533326.041 -6735145.845 19106887.768 10 0 60052 51300.00000 0 -16924337.973 -8477844.543 17120039.635 10 0 60052 52200.00000 0 -18268405.634 -9912648.778 14801236.528 10 0 60052 53100.00000 0 -19503691.447 -11027952.202 12195206.851 10 0 60052 54000.00000 0 -20569275.820 -11825006.354 9352326.723 10 0 60052 54900.00000 0 -21407763.206 -12317628.391 6327660.560 10 0 60052 55800.00000 0 -21967767.236 -12531384.668 3179903.263 10 0 60052 56700.00000 0 -22206169.074 -12502283.225 -29756.393 10 0 60052 57600.00000 0 -22090051.788 -12275029.324 -3238829.289 10 0 60052 58500.00000 0 -21598226.475 -11900917.322 -6384752.619 10 0 60052 59400.00000 0 -20722282.750 -11435448.290 -9406124.663 10 0 60052 60300.00000 0 -19467116.225 -10935775.217 -12243921.920 10 0 60052 61200.00000 0 -17850907.976 -10458085.659 -14842672.821 10 0 60052 62100.00000 0 -15904554.582 -10055034.842 -17151562.962 10 0 60052 63000.00000 0 -13670571.200 -9773340.378 -19125448.198 10 0 60052 63900.00000 0 -11201513.024 -9651642.923 -20725753.895 10 0 60052 64800.00000 0 -8557981.402 -9718725.566 -21921241.325 10 0 60052 65700.00000 0 -5806298.812 -9992169.053 -22688625.178 10 0 60052 66600.00000 0 -3015951.179 -10477500.935 -23013029.619 10 0 60052 67500.00000 0 -256905.716 -11167875.097 -22888273.987 10 0 60052 68400.00000 0 2403082.451 -12044295.036 -22316982.993 10 0 60052 69300.00000 0 4901061.529 -13076370.706 -21310520.168 10 0 60052 70200.00000 0 7181263.740 -14223575.714 -19888747.021 10 0 60052 71100.00000 0 9197176.471 -15436950.296 -18079614.046 10 0 60052 72000.00000 0 10913218.597 -16661176.544 -15918593.141 10 0 60052 72900.00000 0 12305953.907 -17836936.809 -13447964.140 10 0 60052 73800.00000 0 13364793.586 -18903454.542 -10715970.957 10 0 60052 74700.00000 0 14092161.480 -19801109.530 -7775865.314 10 0 60052 75600.00000 0 14503118.755 -20474016.996 -4684857.985 10 0 60052 76500.00000 0 14624467.164 -20872462.043 -1502998.954 10 0 60052 77400.00000 0 14493371.894 -20955087.692 1707990.951 10 0 60052 78300.00000 0 14155564.619 -20690745.605 4885914.018 10 0 60052 79200.00000 0 13663204.488 -20059933.180 7969292.171 10 0 60052 80100.00000 0 13072488.249 -19055758.242 10898543.451 10 0 60052 81000.00000 0 12441110.511 -17684392.397 13617116.760 10 0 60052 81900.00000 0 11825680.521 -15964995.203 16072564.432 10 0 60052 82800.00000 0 11279202.980 -13929112.996 18217533.654 10 0 60052 83700.00000 0 10848727.148 -11619577.457 20010659.622 10 0 60052 84600.00000 0 10573261.170 -9088949.027 21417345.209 10 0 60052 85500.00000 0 10482037.381 -6397568.450 22410414.006 99